www.pogodaiklimat.ru
ПОГОДА в Усть-Ишиме

Архив погоды в Усть-Ишиме (Омская область, Россия)

Время
(UTC), дата
09 8.07
12 8.07
15 8.07
18 8.07
00 9.07
03 9.07
12 9.07
15 9.07
18 9.07
21 9.07
00 10.07
03 10.07
06 10.07
09 10.07
12 10.07
15 10.07
18 10.07
21 10.07
00 11.07
03 11.07
06 11.07
12 11.07
15 11.07
18 11.07
21 11.07
00 12.07
03 12.07
06 12.07
09 12.07
12 12.07
15 12.07
18 12.07
21 12.07
00 13.07
03 13.07
06 13.07
09 13.07
12 13.07
15 13.07
18 13.07
21 13.07
00 14.07
03 14.07
06 14.07
09 14.07
12 14.07
18 14.07
21 14.07
00 15.07
03 15.07
06 15.07
Ветер
(напр.,м/с)
Видим. Явления Облачность Т
(С)
Тd
(С)
f
(%)
Тe
(С)
Тes
(С)
Комфортность P
(гПа)
Po
(гПа)
Тmin
(С)
Tmax
(С)
R
(мм)
R24
(мм)
S
(см)
С 3 20 км 8/8 600 м
[Cu hum]
+24.2 +12.1 47 +26 +28 жарко 1012.1 1005.8
СВ 5 20 км 9/8 600 м
[Cu hum Ci]
+24.9 +12.1 45 +27 +27 жарко 1012.0 1005.7
СЗ 2 20 км 3/3 300 м
[Sc diur, vesp Ci fib]
+22.1 +13.8 59 +25 +25 комфорт 1012.2 1005.8 +25.1
СЗ 3 20 км 4/3 300 м
[Sc diur, vesp Ac trans]
+17.4 +14.7 84 +17 +17 1013.1 1006.6
С 2 20 км 1/0
[Ci fib]
+16.1 +11.2 73 +16 +17 1014.4 1007.8
СВ 3 20 км 3/0
[Ci fib]
+20.9 +11.9 56 +23 +28 комфорт 1015.1 1008.6 +15.3
СЗ 4 20 км 8/6 600 м
[Cu hum Ci fib]
+26.6 +10.8 37 +27 +29 жарко 1014.2 1007.9
З 2 20 км 9/1 600 м
[Cu hum Ac trans]
+22.1 +15.7 67 +26 +26 душно 1014.4 1008.0 +27.0
З 2 20 км 4/3 600 м
[Sc diur, vesp Ac lent]
+17.5 +16.0 91 +18 +18 1014.8 1008.3
З 1 20 км 3/0
[Ac trans Ci]
+16.8 +13.8 82 +18 +18 1014.8 1008.3
СЗ 1 20 км 4/0
[Ci]
+15.9 +14.3 90 +17 +17 1015.1 1008.6
СЗ 2 20 км 6/0
[Ci fib]
+22.9 +14.5 59 +27 +32 душно 1015.4 1009.0 +14.2
С 3 20 км 4/0
[Ci fib]
+26.0 +12.8 44 +28 +38 жарко 1014.8 1008.5
СЗ 3 20 км 8/8 600 м
[Cu hum Ci fib]
+27.3 +12.7 40 +29 +31 жарко 1013.9 1007.6
З 3 20 км 6/3 600 м
[Cu hum Ci fib]
+28.3 +13.8 41 +30 +33 жарко 1012.9 1006.6
З 2 20 км 4/1 600 м
[Cu hum Ci fib]
+25.5 +16.2 56 +29 +29 душно 1012.1 1005.8 +28.5
З 2 20 км ясно +18.1 +17.5 96 +19 +19 1012.0 1005.5
З 2 20 км ясно +18.4 +17.8 96 +20 +20 1011.4 1004.9
ЮЗ 2 4000 м слаб. дождь 10/3 300 м
[Sc Ac As]
+18.5 +17.9 96 +20 +20 1011.0 1004.5
З 3 20 км {дождь} ясно +23.7 +18.2 71 +28 +33 душно 1010.8 1004.5 +17.6 2
З 4 20 км {дождь} 6/3 600 м
[Cu hum Ci sp]
+27.5 +16.7 52 +31 +37 душно 1009.8 1003.6
Ю 2 {18} 20 км гроза без осадков {дождь} 9/9 1000 м
[Sc]
+21.6 +16.3 72 +25 +26 комфорт 1008.5 1002.2
В 2 {10} 10 км гроза, ливневой дождь 10/10 300 м
[Cb calv]
+21.9 +16.5 71 +26 +26 душно 1008.7 1002.4 +30.1 0.0
Ю 4 20 км гроза без осадков {ливн. дождь} 10/10 300 м
[Cb calv]
+18.7 +17.2 91 +20 +20 1008.1 1001.7
СВ 1 20 км в посл. час гроза 8/3 300 м
[Cb cap Ac lent]
+16.9 +16.6 98 +18 +18 1006.8 1000.3
штиль 0 4000 м дымка {гроза} 10/3 600 м
[Cb cap Cc]
+17.6 +17.4 99 +18 +18 1006.8 1000.4
В 2 20 км гроза без осадков 10/4 600 м
[Cb cap Ac lent Cs]
+19.4 +18.1 92 +22 +24 комфорт 1006.9 1000.5 +16.2 11
ЮВ 1 20 км гроза без осадков 4/3 600 м
[Cb cap Ci fib]
+26.2 +18.7 63 +31 +42 очень душно 1006.5 1000.2
ЮВ 2 20 км {гроза} 6/4 600 м
[Cb cap Ci fib]
+28.7 +16.7 48 +32 +39 душно 1005.9 999.7
З 1 {10} 20 км {гроза} 9/3 600 м
[Cb cap As op Ci fib]
+24.8 +17.1 62 +29 +31 душно 1005.9 999.6
В 2 20 км 6/1 600 м
[Cu hum Ac lent Ci]
+24.9 +18.8 69 +30 +30 душно 1006.0 999.7 +28.8
штиль 0 20 км 5/1 600 м
[Sc diur, vesp Cc]
+19.1 +18.8 98 +21 +21 комфорт 1007.0 1000.6
В 1 20 км туман поземный 3/3 600 м
[Sc diur, vesp]
+18.0 +17.9 99 +19 +19 1006.6 1000.1
штиль 0 20 км туман поземный 3/0
[Ac lent]
+18.9 +17.9 94 +20 +21 1006.6 1000.6
В 1 20 км 3/0
[Ac lent]
+23.8 +17.3 67 +28 +33 душно 1007.2 1000.9 +16.3
ЮВ 1 20 км 4/4 600 м
[Cu hum]
+28.5 +17.4 51 +33 +42 очень душно 1006.9 1000.6
СЗ 2 20 км 6/3 600 м
[Cb cap Ci fib]
+28.8 +16.8 48 +32 +40 душно 1006.2 1000.0
СВ 4 {12} 20 км 8/3 600 м
[Cb cap Ac lent Ci fib]
+22.5 +16.1 67 +27 +28 душно 1007.2 1000.9
СВ 1 20 км 9/3 600 м
[Sc Ac lent Ci fib]
+21.9 +17.2 75 +26 +26 душно 1007.6 1001.2 +29.8
СВ 3 20 км 6/3 600 м
[Sc Ac trans Ci fib]
+19.8 +18.4 92 +23 +23 комфорт 1008.2 1001.8
С 3 20 км 6/3 600 м
[Sc Ci fib]
+17.8 +17.2 96 +18 +18 1008.2 1001.8
С 2 4000 м дымка 10/10 300 м
[St]
+17.5 +17.2 98 +18 +18 1009.0 1002.5
С 3 20 км 10/3 300 м
[Sc Ac As]
+18.7 +17.1 90 +20 +21 1009.8 1003.4 +16.8
С 3 20 км 9/9 600 м
[Sc]
+20.4 +16.2 77 +24 +25 комфорт 1010.2 1003.8
С 4 20 км 8/8 600 м
[Cu hum]
+24.4 +16.3 61 +28 +30 душно 1009.7 1003.4
С 6 {10} 20 км 8/5 600 м
[Cu hum Ac As Ci sp]
+21.5 +15.4 68 +25 +25 комфорт 1010.6 1004.2
С 2 20 км 3/3 600 м
[Sc diur, vesp]
+15.7 +12.3 80 +16 +16 1012.1 1005.5
С 4 20 км 10/10 600 м
[Cb cap]
+15.4 +12.7 84 +14 +14 1011.5 1005.0
С 3 20 км 9/3 600 м
[Sc Ac As]
+14.5 +13.6 94 +14 +14 1011.8 1005.3
С 3 20 км 10/4 600 м
[Sc Ac As]
+17.8 +14.2 79 +18 +19 1012.0 1005.6 +14.1
СВ 3 20 км 9/9 600 м
[Sc]
+19.8 +15.1 74 +22 +23 комфорт 1012.1 1005.6
Местоположение метеостанции Усть-Ишим (Омская область, Россия): широта 57.68 долгота 71.18 высота над уровнем моря 56 м.
В архиве по умолчанию представлена погода в Усть-Ишиме за последнюю неделю. Архивные данные за месяц целиком и за предыдущие месяцы, начиная с января 2011 года, Вы можете получить, выбрав интересующий диапазон дат из раскрывающегося списка и нажав кнопку "Найти!".
*Определитесь, кто Вы:
Внимание! Время в таблицах - всемирное. Для получения местного времени необходимо прибавить поправку, которая равна 6 ч.
Некоторые строки с данными для отдельных станций могут быть выделены курсивом. Это означает, что фактические данные отсутствуют по различным причинам, а приведенные значения являются расчетными модельными данными для данного пункта наблюдений.
Смотрите также архив погоды в соседних городах и на ближайших метеорологических станциях:
Партнеры нашего сайта:      
Пояснения к столбцам:
  • Ветер - указаны скорость ветра в м/с - средняя за 10 мин, порывы в срок и между сроками (в фигурных скобках) и направление, откуда дует ветер: С - северный,
  • СВ - северо-восточный, В - восточный, ЮВ - юго-восточный, Ю - южный, ЮЗ - юго-западный, З - западный, СЗ - северо-западный.
  • Видимость - горизонтальная дальность видимости в метрах или километрах. При видимости от 1 до 10 км при отсутствии осадков обычно наблюдается дымка, при ухудшении видимости до 1 км и менее - туман. В сухую погоду видимость может ухудшаться дымом, пылью или мглою.
  • Явления - указаны атмосферные явления, наблюдавшиеся в срок или в последний час перед сроком; фигурными скобками обозначены явления, наблюдавшиеся между сроками (за 1-3 часа до срока); квадратными скобками обозначены град или гололедные отложения с указанием их диаметра в мм.
  • Облачность - указаны через наклонную черту общая и нижняя облачность в баллах и высота нижней границы облаков в метрах; квадратными скобками обозначены формы облаков: Ci - перистые, Cs - перисто-слоистые, Cc - перисто-кучевые, Ac - высококучевые, As - высокослоистые, Sc - слоисто-кучевые, Ns - слоисто-дождевые, Cu - кучевые, Cb - кучево-дождевые. Подробнее классификацию облаков см. в Атласе облаков (PDF).
  • T - Температура воздуха - температура, измеренная на высоте 2 м над землей.
  • Td - Температура точки росы - температура, при понижении до которой содержащийся в воздухе водяной пар достигнет насыщения.
  • f - Относительная влажность воздуха - влажноcть воздуха, измеренная на высоте 2 м над землей.
  • Te - Эффективная температура - температура, которую ощущает одетый по сезону человек в тени. Характеристика душности погоды. При расчете учитывается влияние влажности воздуха и скорости ветра на теплоощущения человека.
  • Tes - Эффективная температура на солнце - температура, которую ощущает человек, с поправкой на солнечный нагрев. Характеристика знойности погоды. Зависит от высоты солнца над горизонтом, облачности и скорости ветра. Ночью, в пасмурную погоду, а также при ветре 12 м/с и более поправка равна нулю.
  • P - Атмосферное давление - приведенное к уровню моря атмосферное давление.
  • Po - Атмосферное давление - измеренное на уровне метеостанции атмосферное давление.
  • Tmin - Минимальная температура - минимум температуры воздуха на высоте 2 м над землей.
  • Tmax - Максимальная температура - максимум температуры воздуха на высоте 2 м над землей.
  • R - Количество осадков - Количество выпавших осадков за период времени, мм. При наведении курсора мыши на число - период времени, за который выпало указанное количество осадков.
  • R24 - Количество осадков - Количество выпавших осадков за 24 часа, мм.
  • S - Снежный покров - Высота снежного покрова, см. При наведении курсора мыши на число - состояние снежного покрова и степень покрытия местности в баллах.